Theta_e
345 348 345 344 344 348 348 345 345 344 344 345 344 343 344 346 345 344 342 345 343 346 347 348 353 351 347 349 351 352 352 352 350 351 352 352 351 351 347 349 348 349 350
344 347 342 344 343 344 346 345 344 347 348 351 346 342 344 344 343 343 344 345 346 348 345 353 353 353 351 348 350 351 349 351 353 352 349 350 351 351 350 348 349 349 348
344 346 346 344 345 342 345 342 345 344 348 349 344 341 342 342 348 345 345 345 344 345 352 353 352 351 351 350 353 352 352 351 349 340 345 347 347 350 350 349 347 349 349
344 346 347 343 345 346 342 341 344 344 343 344 342 344 348 347 350 343 340 349 352 352 353 353 351 353 352 350 352 352 350 343 344 349 348 344 344 349 350 349 343 345 343
345 345 343 341 343 344 343 342 342 343 342 345 349 344 341 347 342 343 345 349 352 353 353 348 345 344 345 346 348 351 351 348 346 347 347 347 346 346 349 349 346 340 345
344 343 341 340 340 342 343 343 342 343 344 341 348 344 341 345 352 348 351 348 352 346 347 349 345 346 347 346 347 346 348 345 347 346 346 346 348 348 347 345 345 342 338
343 343 344 340 340 341 342 342 342 342 344 348 351 351 348 348 351 351 353 351 350 346 351 350 349 349 346 344 345 347 345 343 343 343 345 345 344 347 348 346 348 345 340
342 344 343 342 342 338 338 338 340 339 343 344 344 349 349 348 351 353 352 352 351 348 351 351 347 345 345 344 345 343 337 340 342 344 346 345 341 342 342 342 343 343 343
344 344 344 346 343 342 342 340 342 342 341 342 344 337 331 337 349 351 352 352 351 351 351 350 345 343 342 344 344 341 336 341 344 346 348 348 343 344 343 344 344 343 343
343 345 344 339 341 342 343 343 343 342 340 341 338 341 343 351 350 350 346 352 351 351 351 344 345 342 342 342 341 340 339 344 346 348 349 347 345 344 344 344 345 344 344
344 344 344 346 348 349 348 342 341 341 340 345 343 343 345 349 348 350 348 351 350 350 347 344 343 341 341 340 340 341 345 345 346 347 348 343 345 346 345 348 345 344 344
344 345 345 345 347 348 348 347 345 347 347 348 347 346 346 348 349 347 348 350 351 348 342 342 341 340 345 344 345 345 346 345 346 347 348 343 344 347 344 344 344 343 343
344 346 345 347 348 347 344 346 347 346 345 348 348 346 345 344 343 342 342 343 342 344 344 344 345 346 345 346 348 346 345 345 345 346 346 342 343 343 343 343 344 345 343
345 345 344 346 347 344 341 342 345 344 344 345 348 348 347 342 346 343 341 343 344 345 347 347 346 349 350 351 350 350 347 345 344 346 349 341 341 338 338 341 343 345 345
345 345 345 345 345 348 347 344 343 343 345 346 346 348 348 345 347 347 350 349 350 350 349 350 350 351 351 350 350 352 349 347 345 346 347 343 336 337 339 341 344 346 343
343 344 344 342 348 350 350 350 348 346 347 345 345 347 349 347 348 348 350 350 350 351 350 350 352 350 350 349 350 351 350 348 346 348 346 346 339 340 344 344 345 345 344
343 345 344 343 347 349 349 349 346 346 345 344 346 349 347 345 347 348 351 351 350 351 353 351 350 350 348 348 350 350 349 347 348 345 344 343 344 347 346 345 344 342 344
343 346 344 340 344 347 349 348 346 345 344 345 346 347 347 344 345 349 351 351 351 351 349 348 347 347 347 348 350 349 348 349 348 347 345 345 349 351 350 343 341 342 342
345 347 346 343 344 347 349 348 348 348 344 346 347 347 347 345 346 352 351 352 354 350 349 347 347 349 349 349 349 349 350 345 345 343 346 346 351 351 351 344 342 344 346
346 346 348 347 348 349 348 350 348 346 345 344 345 345 346 345 347 350 350 354 354 351 350 350 353 351 351 351 348 347 348 344 344 345 345 348 350 350 350 353 352 348 344
346 345 347 348 348 348 345 347 346 345 345 344 345 346 347 347 348 351 350 353 355 353 357 357 355 355 352 351 350 347 346 344 343 346 349 350 350 349 350 350 350 349 350
347 346 346 347 347 348 346 348 347 346 346 346 347 347 345 347 350 348 351 353 357 355 358 356 356 352 347 349 349 349 347 344 345 346 348 347 348 349 349 350 352 353 352
348 348 346 347 346 348 348 350 349 349 350 350 348 347 347 350 349 350 349 351 355 356 355 357 357 354 349 352 353 351 349 348 347 347 349 348 349 347 348 351 351 353 353
347 348 347 345 345 349 351 349 349 346 347 346 344 345 350 352 351 352 345 347 352 354 357 357 355 358 356 350 352 350 351 352 351 348 349 349 348 348 350 348 348 350 354
347 347 347 347 347 349 351 351 347 347 346 346 345 350 350 355 354 351 347 347 350 351 355 354 356 355 355 354 352 353 355 352 355 350 346 347 347 346 348 351 350 349 354
346 347 347 349 347 349 352 351 350 349 348 348 346 347 348 351 352 353 349 347 348 350 353 352 356 357 358 354 353 353 351 353 353 351 348 347 348 346 346 347 351 351 352
Wind_Speed
6 8 9 9 9 9 8 9 9 11 11 12 12 13 12 11 12 11 11 10 11 12 14 17 15 13 13 14 14 12 11 11 12 11 12 11 10 10 11 11 6 10 11
11 8 8 9 10 10 8 8 10 11 12 12 12 13 13 12 13 13 12 10 12 14 15 15 15 15 14 14 14 13 13 12 11 11 11 12 11 10 9 9 13 10 10
10 9 7 8 9 8 6 7 9 11 11 12 12 14 13 12 13 15 15 12 13 13 16 16 16 15 14 14 14 12 11 12 10 12 8 10 9 9 9 9 8 9 9
9 9 8 8 9 8 6 8 9 9 10 10 10 11 14 13 12 15 16 14 15 15 15 16 16 16 14 14 13 12 11 11 11 5 7 10 10 9 8 9 8 7 8
11 12 11 11 10 9 8 10 12 10 10 10 10 11 14 14 15 17 16 16 15 15 15 16 15 15 12 11 10 8 7 8 11 9 10 8 9 7 8 6 8 9 7
15 15 13 12 11 11 12 14 15 11 11 11 11 13 14 15 16 18 15 16 14 14 16 15 14 12 11 9 9 9 10 11 8 9 9 10 10 8 10 6 5 5 6
17 17 15 15 13 14 12 13 15 14 12 12 13 14 15 16 16 16 15 14 14 15 14 14 13 12 11 10 11 9 9 10 9 9 8 9 8 7 7 6 3 4 4
15 15 14 15 15 16 14 16 17 15 14 11 13 19 20 18 14 14 14 14 14 14 12 12 11 11 11 11 10 9 9 10 9 9 9 9 9 8 8 7 4 4 4
15 14 12 14 16 16 17 15 15 18 17 14 19 22 21 16 13 14 14 13 12 12 12 11 10 10 10 9 9 9 11 12 9 8 8 8 8 9 8 6 5 5 5
13 12 11 15 16 16 17 18 18 18 17 18 20 18 15 12 13 13 12 11 11 11 10 10 9 8 9 11 11 9 10 10 6 7 6 5 7 7 6 3 2 4 4
10 10 12 9 10 13 15 15 17 17 19 15 17 17 14 13 11 11 10 10 10 9 9 9 7 6 7 9 7 6 7 5 4 3 5 4 5 6 5 3 2 2 2
11 8 7 9 10 12 12 13 15 14 13 12 12 12 11 9 8 10 8 9 9 9 9 7 6 5 6 5 6 6 3 4 3 3 4 4 5 5 4 3 4 2 3
11 9 9 8 8 8 10 11 12 14 13 12 11 10 10 10 9 8 8 8 8 8 8 6 4 3 5 4 4 5 4 2 4 3 3 3 3 1 2 2 2 4 3
11 9 8 7 7 8 10 10 11 13 12 12 10 10 10 9 8 7 9 9 8 7 6 4 4 2 1 2 3 3 4 3 3 3 3 2 2 5 5 2 3 4 4
12 10 8 8 8 10 9 9 10 11 10 10 10 9 9 9 8 8 7 7 7 6 5 3 1 1 2 1 2 2 3 4 4 3 2 5 3 10 3 1 4 5 5
12 11 9 9 9 8 6 7 8 8 9 9 10 8 7 6 6 6 6 6 6 5 4 2 3 5 6 5 3 2 2 4 4 3 3 4 6 7 2 5 6 7 7
11 12 11 10 8 6 4 5 6 7 8 9 9 8 6 4 3 5 5 5 5 4 3 2 3 3 6 5 2 2 2 3 4 2 4 2 3 6 6 7 8 8 7
11 11 11 10 9 6 5 5 6 6 7 7 7 6 5 4 4 4 3 4 3 3 2 0 1 2 3 3 2 2 2 4 4 1 1 3 3 3 4 6 8 7 6
10 12 11 10 10 7 6 4 3 4 6 7 6 5 6 4 2 3 2 3 2 2 2 1 1 2 3 3 3 3 3 4 5 2 2 3 3 3 4 6 7 5 5
10 11 11 11 9 6 5 5 4 5 6 5 5 4 7 5 2 2 2 2 2 3 3 2 1 2 3 5 7 6 4 2 4 4 2 1 2 2 4 3 2 6 6
10 11 13 13 11 8 8 8 7 8 7 6 6 6 7 5 4 2 3 1 2 2 0 3 1 3 3 5 5 2 2 1 2 3 3 3 2 2 4 4 5 5 5
12 11 14 14 13 10 8 7 5 6 7 6 7 7 8 6 5 3 3 2 2 3 2 2 1 2 3 3 5 4 2 7 6 4 2 3 2 1 2 3 4 3 4
14 14 14 15 15 12 10 8 7 7 5 8 8 9 8 7 6 4 3 3 1 3 3 2 1 3 6 2 2 5 3 4 3 6 4 4 3 1 1 1 2 2 2
16 15 15 15 16 14 13 10 9 12 11 9 11 9 8 8 7 4 3 4 3 2 2 2 1 3 4 5 1 4 3 4 5 2 8 6 5 4 1 3 2 0 1
17 17 17 16 17 14 14 11 9 10 7 9 9 8 7 8 7 5 3 4 4 3 2 1 0 2 2 4 4 1 2 2 3 6 6 6 3 5 4 4 2 2 2
17 19 19 18 19 17 14 13 12 8 6 6 9 11 10 10 9 7 5 4 5 5 4 3 3 2 1 3 5 3 5 3 5 7 6 5 6 5 5 4 4 2 3
Wind_Direction
151 146 136 141 137 122 112 120 127 141 133 134 132 126 122 119 119 118 114 119 117 116 111 108 112 110 107 103 101 106 101 100 100 99 95 95 93 93 97 97 101 98 104
140 143 140 148 148 130 122 117 133 134 139 135 136 132 131 123 121 114 110 116 119 121 118 113 110 109 109 105 106 104 98 95 107 99 95 105 90 91 92 93 94 95 97
136 137 139 150 158 151 140 129 135 146 151 145 143 139 138 128 119 112 105 115 119 123 118 116 111 110 107 106 100 99 100 100 106 99 104 91 85 93 93 95 97 99 102
126 125 122 131 136 145 150 150 140 149 150 146 147 141 131 129 118 115 115 128 123 122 119 116 114 113 114 109 107 105 99 101 103 75 95 91 90 87 83 89 96 97 87
107 103 108 112 115 127 143 153 147 145 140 137 137 142 135 129 124 127 132 129 120 120 120 115 115 113 112 104 105 105 106 91 92 89 91 86 83 80 77 62 78 86 97
110 101 101 104 101 103 123 137 140 142 137 140 124 122 127 125 124 127 128 124 119 120 119 113 113 107 93 90 98 99 96 97 83 93 97 78 77 72 89 62 66 82 89
106 107 99 99 100 100 112 123 135 133 130 128 131 129 127 126 122 123 124 116 117 119 117 118 111 99 90 98 99 95 83 86 95 94 87 76 80 80 67 65 47 60 73
107 103 99 98 100 103 111 116 117 123 116 119 130 126 121 110 117 123 120 117 119 126 124 116 111 100 92 92 92 86 85 100 93 94 91 90 92 84 70 60 36 40 37
107 110 110 104 106 111 123 120 111 107 102 98 127 120 114 123 126 121 119 122 128 129 125 126 116 95 84 86 98 85 87 105 98 102 100 94 96 86 73 54 40 40 33
115 115 112 109 115 120 114 122 120 121 113 107 119 117 133 125 119 120 130 131 128 136 134 132 118 99 94 84 88 88 90 89 101 106 102 109 99 83 80 64 7 33 35
114 125 123 118 120 125 121 120 125 125 116 131 130 128 124 125 124 121 135 126 133 142 146 137 124 108 92 66 71 84 94 89 107 109 96 100 83 55 29 338 315 34 36
134 120 114 130 137 127 117 128 125 129 126 123 125 119 120 123 115 128 134 137 137 149 150 140 127 96 86 88 76 65 92 102 119 106 64 59 60 51 44 20 346 10 35
143 135 127 132 130 125 124 133 131 129 127 119 122 121 120 123 128 133 133 128 141 136 145 130 125 122 86 74 75 63 68 52 58 65 22 30 50 10 308 325 10 27 27
143 135 131 134 126 123 131 134 133 131 131 129 126 125 123 128 132 134 133 131 139 140 132 135 127 109 75 49 48 47 49 25 21 31 3 341 3 347 334 329 32 44 53
147 145 145 143 137 130 129 129 129 132 130 128 123 119 119 120 123 131 122 128 127 120 128 130 135 37 29 68 61 47 39 28 22 10 8 320 349 350 345 74 83 71 60
149 151 148 149 147 138 131 129 132 135 134 132 125 119 107 118 115 121 114 121 113 119 113 101 83 60 71 95 103 88 54 41 19 1 348 311 332 343 35 92 89 87 67
163 154 156 156 157 152 135 131 128 142 141 138 132 117 107 114 107 98 101 115 116 111 94 93 73 67 73 76 71 72 75 45 353 359 15 7 343 356 54 85 96 89 69
158 158 161 162 165 166 140 123 117 118 140 144 139 132 122 105 99 87 106 115 119 124 141 106 28 32 44 50 49 10 359 347 333 345 6 5 10 41 50 87 94 91 68
163 166 169 168 168 167 164 150 156 120 139 148 144 141 141 125 112 104 119 99 99 183 209 261 27 23 42 12 329 324 341 3 358 323 271 331 8 36 100 81 80 80 60
174 175 180 178 185 187 190 200 189 164 141 145 149 135 144 153 161 135 142 107 115 193 202 212 328 340 342 334 322 322 321 313 6 33 71 51 26 58 87 73 41 74 50
179 187 187 190 194 201 211 199 182 180 177 173 171 148 148 161 193 211 163 124 119 185 326 210 245 305 344 340 312 1 57 173 2 67 89 69 38 59 73 73 49 38 71
185 184 191 194 194 194 187 185 192 193 185 187 176 169 160 168 192 198 173 152 127 129 131 112 94 9 5 346 337 278 92 141 77 53 75 56 47 67 89 69 49 57 54
192 187 185 190 193 192 189 190 193 188 180 187 180 172 182 181 190 195 199 188 172 124 149 144 323 323 338 18 10 337 306 46 209 83 70 45 33 216 185 26 36 50 70
198 189 186 182 190 191 193 196 196 206 187 176 174 169 175 182 186 196 203 195 213 185 131 147 296 319 311 342 58 31 34 21 348 79 115 72 53 55 342 282 233 156 142
194 191 188 182 189 193 199 205 206 222 178 179 178 172 182 184 186 188 193 197 208 213 216 144 72 25 352 331 357 72 45 21 357 338 358 25 113 67 19 343 270 241 187
200 196 187 187 191 198 202 202 203 209 234 186 190 186 190 193 191 190 194 206 211 214 213 220 227 234 301 309 316 335 330 10 304 335 333 344 324 27 14 3 337 240 197